This is the latest recevied weather packets stored in our database for station/object YB2SAT-11. If no packets are shown the sender has not sent any weather packets the latest 10 day(s).
| Time | Temp. | Humidity | Pressure | Rain* | Wind** | Luminosity | Snow |
|---|---|---|---|---|---|---|---|
| 1788139556 | 81° F | 72% | 757.3 mmHg | 0 in | - | - | - |
| 1788138356 | 79° F | 76% | 757.3 mmHg | 0 in | - | - | - |
| 1788137155 | 78° F | 78% | 757.2 mmHg | 0 in | - | - | - |
| 1788135955 | 77° F | 81% | 757.1 mmHg | 0 in | - | - | - |
| 1788134755 | 76° F | 86% | 757 mmHg | 0 in | - | - | - |
| 1788133555 | 75° F | 89% | 756.8 mmHg | 0 in | - | - | - |
| 1788132355 | 74° F | 92% | 756.6 mmHg | 0 in | - | - | - |
| 1788131155 | 73° F | 93% | 756.3 mmHg | 0 in | - | - | - |
| 1788129955 | 73° F | 92% | 756.2 mmHg | 0 in | - | - | - |
| 1788128755 | 73° F | 90% | 756.1 mmHg | 0 in | - | - | - |
| 1788127556 | 73° F | 89% | 756 mmHg | 0 in | - | - | - |
| 1788126355 | 73° F | 90% | 755.8 mmHg | 0 in | - | - | - |
| 1788125156 | 73° F | 90% | 755.8 mmHg | 0 in | - | - | - |
| 1788123955 | 73° F | 91% | 755.6 mmHg | 0 in | - | - | - |
| 1788122755 | 73° F | 91% | 755.6 mmHg | 0 in | - | - | - |
| 1788121556 | 73° F | 92% | 755.6 mmHg | 0 in | - | - | - |
| 1788120355 | 73° F | 92% | 755.6 mmHg | 0 in | - | - | - |
| 1788119156 | 73° F | 92% | 755.5 mmHg | 0 in | - | - | - |
| 1788117956 | 73° F | 92% | 755.6 mmHg | 0 in | - | - | - |
| 1788116756 | 73° F | 92% | 755.7 mmHg | 0 in | - | - | - |
| 1788115556 | 72° F | 96% | 755.8 mmHg | 0 in | - | - | - |
| 1788114356 | 72° F | 96% | 756 mmHg | 0 in | - | - | - |
| 1788113156 | 72° F | 95% | 756.1 mmHg | 0 in | - | - | - |
| 1788111956 | 73° F | 94% | 756.1 mmHg | 0 in | - | - | - |
| 1788110756 | 73° F | 94% | 756.1 mmHg | 0 in | - | - | - |
* Rain latest 24 hours (hover to see other rain measurements)
** Current wind speed in m/s (hover to see current wind gust speed)